Regional Weather Roundup
Issued by NWS

Home | Current Version | Previous Version | Text Only | Print | Product List | Glossary Off
Versions: 1 2 3 4 5 6 7 8 9 10 11 12 13 14 15 16 17 18 19 20 21 22 23 24 25 26 27 28 29 30 31 32 33 34 35 36 37 38 39 40 41 42 43 44 45 46 47 48 49 50

000
ASUS43 KMPX 030910
RWRMN
WEATHER ROUNDUP FOR MINNESOTA
NATIONAL WEATHER SERVICE TWIN CITIES/CHANHASSEN MN
400 AM CDT WED JUN 03 2015


NOTE: "FAIR" INDICATES FEW OR NO CLOUDS BELOW 12,000 FEET WITH NO
SIGNIFICANT WEATHER AND/OR OBSTRUCTIONS TO VISIBILITY. N/A MEANS
CURRENT SKY AND/OR WEATHER CONDITIONS ARE NOT AVAILABLE.

MNZ060>063-068>070-031000-
   Twin Cities Metro

CITY           SKY/WX    TMP DP  RH WIND       PRES   REMARKS
TWIN CITIES    CLOUDY    65  54  67 S13       29.89S
ST PAUL        CLOUDY    64  55  72 S10       29.89S
CRYSTAL        CLOUDY    67  54  63 S8        29.87R
BLAINE         CLOUDY    66  55  68 S10       29.88R
LAKEVILLE      CLOUDY    63  54  72 S8        29.89S
EDEN PRAIRIE   CLOUDY    66  55  67 S12       29.87S
SOUTH ST PAUL  CLOUDY    64  54  68 S7        29.89F
LAKE ELMO      CLOUDY    63  54  72 S10       29.91S
$$
MNZ001>005-007-008-013>017-022>024-027-028-031000-
   Northwest Minnesota

CITY           SKY/WX    TMP DP  RH WIND       PRES   REMARKS
BEMIDJI        LGT RAIN  59  57  91 S9        29.75F
HALLOCK        CLOUDY    57  55  94 NE12      29.77F
ROSEAU         CLOUDY    61  54  77 NE13      29.80R HAZE
WARROAD        FOG       57  54  88 NE10      29.81S VSB 1/4
THIEF RVR FALL PTCLDY    59  55  88 NE8       29.76R
CROOKSTON      MOCLDY    61  59  94 NE8       29.73R
FOSSTON        MOCLDY    61  57  88 SE12      29.73F
DETROIT LAKES  PTCLDY    63  57  82 SE8       29.75F
MOORHEAD       MOCLDY    64  61  88 S13       29.70S
PARK RAPIDS    CLOUDY    63  57  81 E6        29.78S
MAHNOMEN       CLOUDY    64  59  85 E9        29.74F
$$
MNZ006-009>011-018-025>026-031000-
   North Central Minnesota

CITY           SKY/WX    TMP DP  RH WIND       PRES   REMARKS
BAUDETTE       CLOUDY    58  57  97 E7        29.79S
FLAG ISLAND    CLOUDY    57  57 100 NE6       29.81R
INTL FALLS     CLOUDY    58  56  93 E3        29.81S
WASKISH        LGT RAIN  59  57  94 E3        29.77R
BIG FORK       RAIN      59  57  94 E3        29.84S
LONGVILLE      CLOUDY    63  55  77 S3        29.81S
GRAND RAPIDS   CLOUDY    61  54  77 SE6       29.85R THUNDER
CRANE LAKE     RAIN      55  55 100 S6        29.86F
COOK           HVY RAIN  57  55  94 CALM      29.89R
WALKER         CLOUDY    59  57  93 NE3       29.81R
$$
MNZ012-019>021-037-031000-
   Northeast Minnesota

CITY           SKY/WX    TMP DP  RH WIND       PRES   REMARKS
DULUTH         CLOUDY    55  45  68 SE6       29.87F
ELY            CLOUDY    54  52  94 SE5       29.92F
HIBBING        LGT RAIN  59  53  80 E3        29.86R
EVELETH        LGT RAIN  57  54  88 E3        29.88S
DULUTH HARBOR  CLOUDY    46  41  81 E5        29.90S
TWO HARBORS    CLOUDY    57  48  72 CALM      29.86F
SILVER BAY     TSTM      54  50  87 N7        29.89R
GRAND MARAIS     N/A     43  39  86 NE6       29.93R
G MARAIS ARPRT CLOUDY    50  45  81 CALM      29.95R
$$
MNZ029>031-032-039>041-046>048-054>057-064-031000-
   West Central Minnesota

CITY           SKY/WX    TMP DP  RH WIND       PRES   REMARKS
FERGUS FALLS   MOCLDY    64  57  77 S12       29.75R
WHEATON        CLOUDY    64  59  82 SE8       29.76R
MORRIS         MOCLDY    64  57  77 SE12      29.76R
ALEXANDRIA     PTCLDY    64  56  75 S13       29.81R
ELBOW LAKE     FAIR      63  58  82 S15       29.77R
WADENA         PTCLDY    63  55  77 S8        29.78S
GLENWOOD       PTCLDY    63  57  82 S13       29.82R
APPLETON       CLOUDY    64  57  77 SE5       29.77S
BENSON         MOCLDY    64  55  72 S7        29.79R
ORTONVILLE     CLOUDY    66  61  82 S6        29.75S
MADISON        CLOUDY    66  59  77 S13       29.76S
WILLMAR        FAIR      64  57  77 SE9       29.83S
$$
MNZ033>034-036-042>043-049>051-058-059-031000-
   Central Minnesota

CITY           SKY/WX    TMP DP  RH WIND       PRES   REMARKS
ST CLOUD       PTCLDY    63  55  75 S13       29.84S
SAUK CENTRE    PTSUNNY   62  56  80 SE8       29.82S
PAYNESVILLE    MOCLDY    61  55  79 SE10G18   29.84R
AITKIN         TSTM      61  55  82 S7        29.81F
PINE RIVER     CLOUDY    61  55  82 SE7       29.84S
BRAINERD       CLOUDY    60  57  89 S6        29.82F
STAPLES        CLOUDY    63  55  77 S9        29.80F
LONG PRAIRIE   CLOUDY    61  54  77 SE14      29.82R
LITTLE FALLS   MOCLDY    63  52  67 S10       29.83R
LITCHFIELD     PTCLDY    64  57  77 SE7       29.86R
BUFFALO        CLOUDY    65  54  68 S7        29.88R
MAPLE LAKE     CLOUDY    65  57  73 S7        29.87S
$$
MNZ037-044-045-052-053-031000-
   East Central Minnesota

CITY           SKY/WX    TMP DP  RH WIND       PRES   REMARKS
PRINCETON      MOCLDY    64  55  72 S8        29.86F
MORA           CLOUDY    63  52  67 S6        29.88S
CAMBRIDGE      MOCLDY    68  54  60 S9        29.85S
RUSH CITY      CLOUDY    64  53  68 S6        29.89R
MOOSE LAKE     CLOUDY    63  52  67 S6        29.85R
HINCKLEY       CLOUDY    63  54  72 S7        29.87F
CLOQUET        CLOUDY    52  45  76 E5        29.88R
MCGREGOR       CLOUDY    63  54  72 S8        29.85S THUNDER
$$
MNZ071>073-080-081-089-090-097-098-031000-
   Southwest Minnesota

CITY           SKY/WX    TMP DP  RH WIND       PRES   REMARKS
MONTEVIDEO     CLOUDY    64  59  82 SW9       29.79S
GRANITE FALLS  MOCLDY    65  58  77 S13       29.81S
CANBY          CLOUDY    67  60  77 SW21G30   29.75F
MARSHALL       CLOUDY    64  55  72 SW24G30   29.78R
REDWOOD FALLS  MOCLDY    65  56  72 S13       29.82S
OLIVIA         MOCLDY    61  52  72 S12       29.81F
PIPESTONE      CLOUDY    63  57  82 SW16      29.83S
WINDOM         CLOUDY    64  55  72 S14       29.85R
WORTHINGTON    CLOUDY    63  54  72 S16       29.85S
JACKSON        MOCLDY    63  55  77 S13       29.87R
TRACY          CLOUDY    65  59  79 S21G30    29.79F
SLAYTON        CLOUDY    63  58  85 S15G22    29.85R
$$
MNZ065>067-074>077-082>085-091>093-031000-
   South Central Minnesota

CITY           SKY/WX    TMP DP  RH WIND       PRES   REMARKS
MANKATO        CLOUDY    64  54  68 S13       29.88R
NEW ULM        MOCLDY    63  55  77 S16G22    29.84F
ST JAMES       CLOUDY    64  57  77 S14G20    29.87S
FAIRMONT       CLOUDY    63  52  67 S15G22    29.87S
GLENCOE        CLOUDY    65  57  75 S6G16     29.86R
FARIBAULT      MOCLDY    63  55  77 S10       29.91R
OWATONNA       CLEAR     61  54  77 S17       29.90S
WASECA         CLOUDY    63  54  72 S14G21    29.91R
ALBERT LEA     PTCLDY    61  54  77 S13G18    29.91S
$$
MNZ078>079-086>088-094>096-031000-
   Southeast Minnesota

CITY           SKY/WX    TMP DP  RH WIND       PRES   REMARKS
ROCHESTER      PTCLDY    59  53  80 S14       29.95F
RED WING       PTCLDY    61  52  72 SE7       29.92S
STANTON        CLOUDY    64  54  71 S12G18    29.90R
DODGE CENTER   PTCLDY    61  54  77 S17       29.92F
WINONA         CLEAR     59  52  77 SE5       29.96S
AUSTIN         PTCLDY    59  54  82 S12       29.93F
PRESTON        CLEAR     57  52  84 S10       29.97S
$$
ABBREVIATIONS USED IN REMARKS
   TC - TEMPERATURES IN CELSIUS
  WCI - WIND CHILL INDEX
   HX - HEAT INDEX
  VSB - VISIBILITY
$$


USA.gov is the U.S. government's official web portal to all federal, state and local government web resources and services.